Terminal Aerodrome Forecast
Issued by NWS Boise, ID

Home | Current Version | Previous Version | Text Only | Print | Product List | Glossary On
Versions: 1 2 3 4 5 6 7 8 9 10 11 12 13 14 15 16 17 18 19 20 21 22 23 24 25 26 27 28 29 30 31 32 33 34 35
000
FTUS45 KBOI 230523
TAFBOI
TAF
KBOI 230523Z 2306/2406 30005KT P6SM VCTS SCT080CB BKN100
      TEMPO 2306/2307 VRB20G45KT -TSRA BKN060CB
     FM230700 06007KT P6SM SCT090 BKN200
     FM230900 14005KT P6SM FEW090
     FM232100 32009KT P6SM FEW200=

USA.gov is the U.S. government's official web portal to all federal, state and local government web resources and services.